Wetbulb
48.27 45.95 53.56 59.04 63.97 65.32 66.22 66.99 67.41 67.68 68.22 69.06 70.10 69.96 69.53 70.03 70.51 70.42 70.77 71.03 71.20 71.60 71.97 71.83 72.08 72.17 72.57 72.50 72.29 71.75 71.42 70.98 70.82 71.18 71.59 72.93 73.04 72.76 72.21 72.37 72.90 71.75 73.56
45.50 46.32 52.28 58.49 62.31 63.75 64.67 65.31 65.81 66.02 66.65 67.38 68.31 69.12 69.00 68.93 69.32 69.35 69.64 69.66 70.24 70.80 71.35 71.60 71.62 71.90 71.95 71.94 71.62 71.02 70.85 70.48 70.16 70.60 70.76 71.84 72.50 72.85 72.54 72.15 72.56 72.44 72.97
43.37 45.97 48.98 58.36 60.92 62.16 62.93 63.63 64.30 64.72 65.45 65.64 66.70 67.43 68.09 67.97 67.96 68.05 68.24 68.57 68.47 68.88 69.66 70.12 70.72 70.72 70.61 70.28 70.18 70.19 70.35 70.00 69.80 70.36 70.62 70.91 71.49 72.66 72.51 72.63 72.35 71.49 72.56
42.15 44.59 47.14 57.16 59.42 60.57 60.92 61.75 62.42 62.88 63.50 63.99 64.54 65.46 66.02 66.59 66.90 66.98 67.20 67.37 67.72 67.95 67.66 67.93 68.69 68.64 68.96 68.52 68.74 69.22 69.71 69.80 69.95 69.92 69.94 70.62 70.79 71.95 72.03 72.03 71.79 71.67 71.65
41.10 42.63 46.57 54.85 57.71 58.73 58.89 59.34 60.42 60.24 60.54 61.64 61.94 63.10 63.14 63.83 64.25 65.12 65.25 65.51 65.98 66.42 66.67 66.51 66.49 66.68 66.91 67.21 67.79 68.69 68.76 69.21 69.67 69.81 70.21 69.93 71.72 71.48 71.76 71.41 71.75 71.09 71.74
40.24 40.37 44.16 51.91 55.54 56.31 56.50 56.71 57.82 58.04 57.74 58.53 59.22 59.93 60.84 60.73 61.76 61.71 62.07 62.51 63.18 63.85 64.66 64.81 64.79 65.06 65.06 65.81 66.68 67.57 67.63 67.73 67.79 69.65 69.45 70.42 70.19 71.87 72.04 71.36 71.47 71.05 71.07
40.00 38.98 39.75 47.17 51.56 53.51 53.92 53.75 54.38 55.21 55.13 55.05 55.73 56.12 57.35 58.18 58.39 59.08 59.17 59.59 59.96 60.64 61.19 62.15 62.87 63.14 63.08 63.74 64.49 65.46 65.48 65.34 68.73 68.98 69.36 69.70 69.90 71.62 71.74 71.56 71.66 71.23 70.81
39.33 38.74 37.81 39.93 44.09 48.84 50.12 50.66 51.32 51.80 52.08 51.99 51.88 52.27 52.41 53.84 54.80 55.21 55.98 56.22 57.11 57.68 58.12 58.68 59.39 59.82 60.40 61.13 61.86 62.46 62.94 64.09 67.59 67.48 67.28 67.19 68.85 71.06 71.17 71.04 71.35 71.32 70.99
39.01 39.27 39.39 38.38 40.03 41.11 45.47 46.79 47.43 47.89 47.97 48.48 48.44 47.98 48.20 48.62 50.21 51.50 51.99 53.05 53.60 54.41 54.83 55.15 55.71 56.07 56.69 57.56 58.48 59.19 60.31 63.10 66.50 66.57 65.78 64.58 68.17 70.46 70.67 70.62 70.48 70.51 70.52
38.03 38.43 38.83 39.66 39.69 40.64 40.90 42.17 43.08 43.89 44.43 44.85 45.03 45.04 45.23 46.01 46.27 47.28 47.72 49.12 50.35 50.88 51.94 52.59 52.84 53.08 53.50 54.20 54.99 55.80 58.91 62.52 64.40 65.62 63.35 61.72 67.33 70.01 69.87 69.82 69.84 70.04 70.04
37.60 37.05 37.68 38.05 38.81 39.49 39.44 40.10 41.26 41.85 42.74 42.79 42.73 43.42 43.40 42.71 42.78 43.49 44.52 45.86 47.35 48.03 49.13 50.06 50.70 50.84 51.39 53.61 53.42 54.98 57.87 57.80 61.12 63.14 58.85 60.96 65.83 68.87 69.24 68.98 69.19 69.28 69.33
36.05 35.49 36.64 37.16 37.10 38.41 38.56 39.67 40.00 39.55 39.75 39.19 39.16 40.17 40.97 41.52 41.46 42.43 43.28 44.45 45.33 46.17 46.80 48.03 48.65 48.75 48.35 47.52 48.73 52.58 50.91 53.17 55.82 59.01 55.60 60.78 64.39 66.94 67.92 68.05 68.30 68.47 68.59
35.28 35.41 35.22 35.80 36.66 36.98 37.48 38.54 38.71 38.55 38.63 38.43 37.70 38.42 39.92 40.47 40.67 40.90 41.67 41.84 41.99 43.00 42.92 43.59 43.77 44.01 44.34 45.31 45.78 46.42 47.61 49.58 51.76 54.64 56.04 59.91 63.05 65.89 66.50 66.73 67.07 67.33 67.71
34.58 34.19 34.76 35.65 35.69 36.15 37.17 36.95 36.79 36.37 37.15 36.67 36.80 36.85 38.41 38.82 38.91 39.13 39.43 39.81 40.27 40.67 40.60 41.74 42.32 42.83 43.24 43.71 43.90 44.50 45.94 48.95 51.70 53.49 56.69 55.50 57.90 61.38 62.73 63.95 64.19 65.01 65.55
33.69 33.44 33.67 34.69 35.10 35.12 35.69 36.29 35.95 35.67 35.64 35.95 35.56 35.74 36.55 36.96 37.25 38.38 38.56 39.06 39.11 39.68 39.91 40.12 40.75 41.53 41.98 42.55 43.21 43.59 45.91 48.39 51.65 52.58 54.71 52.02 54.03 54.98 56.15 57.65 59.99 62.69 62.05
33.68 33.23 33.23 33.05 33.87 34.15 34.13 34.38 34.41 34.24 34.83 35.21 34.66 34.43 34.97 35.78 36.15 37.05 37.24 37.23 37.69 38.06 39.10 39.73 39.72 40.56 41.21 41.88 42.18 43.58 46.77 45.78 46.57 48.58 47.86 49.34 50.21 49.11 51.73 53.39 57.03 57.97 57.88
34.33 33.31 33.02 32.43 33.14 33.37 33.48 33.47 33.37 33.38 33.79 33.70 33.63 33.38 33.42 33.89 34.90 35.84 36.31 35.99 36.53 37.41 38.15 39.00 39.21 40.42 40.30 40.91 41.46 43.71 44.08 44.12 44.33 43.71 44.83 44.72 44.09 46.59 48.21 50.55 53.24 52.34 54.70
34.24 32.88 32.03 31.81 32.59 33.22 32.65 32.87 32.32 32.64 33.04 32.84 33.10 32.87 32.76 32.75 33.86 34.65 34.72 34.57 36.10 36.84 37.17 37.43 38.07 38.42 39.07 39.10 39.86 42.36 43.15 42.67 42.27 41.74 43.17 41.43 42.24 43.05 44.22 47.40 48.61 49.28 51.66
33.98 32.43 31.31 31.26 31.58 31.97 32.27 32.52 32.44 32.22 32.27 32.40 32.56 32.12 32.12 32.30 32.74 33.99 33.73 34.12 35.52 35.88 36.10 36.88 37.91 37.61 36.54 37.54 38.76 41.59 43.11 41.28 41.35 40.95 40.61 40.05 40.90 41.62 41.60 44.03 45.05 45.97 48.15
33.23 32.68 31.74 30.78 30.19 31.01 32.30 32.56 32.73 32.27 31.83 32.03 31.00 30.54 30.97 31.52 31.89 33.08 33.61 33.73 34.83 34.75 34.57 35.42 36.18 37.82 36.11 36.38 38.94 40.35 43.73 40.68 41.07 39.97 39.39 39.18 39.77 40.53 40.72 41.03 41.65 42.55 45.34
31.93 31.24 31.07 30.20 29.62 31.00 31.74 31.90 32.14 31.04 31.13 30.57 30.04 29.27 29.70 30.11 30.33 31.23 32.38 32.78 33.90 33.35 33.26 34.05 35.21 35.79 34.97 36.07 38.95 40.62 41.69 42.43 38.70 39.05 39.32 38.37 38.29 39.28 39.51 39.86 40.38 41.14 41.98
31.17 31.12 30.46 29.45 29.01 29.57 30.94 31.04 31.64 31.36 30.22 29.89 29.65 28.73 28.56 28.84 28.98 29.49 30.15 31.10 31.75 32.52 32.30 32.46 33.03 34.41 34.93 35.01 32.67 37.44 34.82 39.22 37.04 38.31 38.39 37.34 36.81 38.31 38.19 38.68 39.08 40.03 40.45
31.23 31.13 29.78 28.69 28.23 28.24 28.08 29.09 29.16 29.73 29.61 29.36 28.91 28.60 27.27 27.91 27.92 28.05 28.46 29.66 30.62 31.33 30.59 30.79 31.82 31.42 32.10 34.01 33.73 32.01 31.95 29.72 31.73 36.82 36.67 36.29 35.75 36.15 36.79 37.68 38.26 39.24 39.25
31.77 31.90 29.67 27.77 26.57 26.01 26.23 28.40 28.54 29.75 29.05 28.29 27.91 27.37 27.26 27.21 27.05 27.19 27.58 28.12 28.75 29.62 29.24 29.50 30.91 31.17 31.72 30.07 33.38 33.47 33.34 31.28 27.52 28.01 35.05 34.89 35.01 34.57 35.02 36.54 37.00 38.26 38.47
31.91 30.09 28.34 26.53 25.94 24.26 24.36 26.35 26.81 27.62 27.32 27.41 26.74 26.08 26.34 26.60 25.98 25.43 25.72 26.53 26.72 27.62 27.94 28.20 28.70 29.16 30.25 29.73 29.56 30.00 31.37 32.23 31.61 28.43 26.43 29.06 32.61 34.17 34.24 36.53 36.51 37.06 37.89
31.06 28.92 27.58 25.47 24.39 23.15 22.85 22.65 24.90 24.46 24.88 24.62 24.38 25.36 25.23 25.11 24.94 23.33 23.83 24.73 25.67 25.85 25.81 26.81 27.86 27.93 27.91 28.60 29.24 29.13 28.32 27.30 26.78 26.72 25.38 26.46 26.96 30.14 32.95 34.71 35.31 35.85 37.08
MSLP
1025.34 1025.90 1025.80 1024.89 1023.58 1022.97 1022.45 1021.96 1021.62 1021.33 1020.93 1020.55 1020.11 1019.83 1019.58 1019.40 1019.25 1018.98 1018.76 1018.44 1018.29 1018.06 1017.87 1017.60 1017.46 1017.26 1017.12 1017.03 1016.82 1016.74 1016.78 1016.72 1016.56 1016.41 1016.32 1016.08 1016.02 1015.95 1015.85 1015.54 1015.20 1015.38 1015.53
1026.22 1026.31 1026.21 1025.23 1024.17 1023.63 1023.13 1022.74 1022.42 1022.06 1021.64 1021.28 1020.92 1020.66 1020.44 1020.32 1020.12 1019.86 1019.54 1019.23 1019.02 1018.77 1018.50 1018.27 1018.07 1017.89 1017.69 1017.47 1017.35 1017.33 1017.20 1017.10 1016.88 1016.51 1016.28 1016.42 1016.27 1016.20 1016.18 1016.16 1016.01 1015.94 1015.89
1026.45 1026.64 1026.44 1025.40 1024.67 1024.24 1023.89 1023.34 1022.88 1022.59 1022.41 1022.11 1021.77 1021.55 1021.29 1021.06 1020.88 1020.62 1020.32 1020.11 1019.79 1019.50 1019.16 1019.00 1018.67 1018.52 1018.31 1018.20 1018.02 1017.81 1017.56 1017.37 1017.05 1016.75 1016.49 1016.23 1016.27 1016.40 1016.39 1016.44 1016.41 1016.45 1016.28
1026.75 1026.95 1026.97 1025.90 1025.26 1024.80 1024.49 1024.11 1023.64 1023.24 1022.98 1022.89 1022.76 1022.44 1022.17 1021.92 1021.68 1021.39 1021.08 1020.89 1020.60 1020.27 1020.15 1019.93 1019.61 1019.36 1019.10 1018.86 1018.51 1018.29 1017.97 1017.60 1017.30 1016.71 1016.33 1016.48 1016.43 1016.85 1016.74 1016.71 1016.76 1016.68 1016.62
1027.02 1027.20 1027.38 1026.52 1025.82 1025.46 1025.18 1024.86 1024.43 1024.21 1023.80 1023.49 1023.43 1023.26 1023.05 1022.78 1022.49 1022.14 1021.97 1021.60 1021.27 1020.95 1020.66 1020.52 1020.32 1019.91 1019.70 1019.31 1019.02 1018.59 1018.25 1017.90 1017.43 1016.67 1016.66 1016.98 1016.86 1017.05 1017.02 1016.98 1016.83 1016.73 1016.79
1027.29 1027.67 1027.82 1027.24 1026.46 1026.17 1025.89 1025.65 1025.30 1025.00 1024.73 1024.45 1024.20 1023.98 1023.72 1023.45 1023.17 1022.89 1022.59 1022.40 1022.10 1021.69 1021.28 1021.22 1020.81 1020.54 1020.23 1019.79 1019.56 1019.10 1018.67 1018.03 1017.46 1016.96 1017.04 1017.23 1017.55 1017.39 1017.16 1017.11 1017.10 1017.03 1017.04
1027.49 1028.21 1028.27 1028.18 1027.43 1026.93 1026.67 1026.40 1026.14 1025.87 1025.56 1025.34 1025.01 1024.80 1024.55 1024.19 1023.94 1023.55 1023.28 1023.00 1022.74 1022.38 1022.11 1021.71 1021.35 1021.05 1020.84 1020.41 1019.99 1019.58 1019.25 1018.58 1017.54 1017.34 1017.40 1017.81 1018.22 1017.65 1017.42 1017.29 1017.23 1017.27 1017.14
1027.78 1028.26 1028.70 1028.67 1028.30 1027.82 1027.56 1027.14 1026.79 1026.58 1026.28 1026.05 1025.85 1025.58 1025.40 1025.07 1024.77 1024.56 1024.26 1023.88 1023.49 1023.12 1022.69 1022.37 1022.09 1021.67 1021.30 1020.96 1020.56 1020.18 1019.70 1019.00 1017.91 1018.33 1018.57 1018.86 1018.69 1018.03 1017.75 1017.62 1017.47 1017.35 1017.35
1028.29 1028.07 1028.30 1028.65 1028.35 1028.27 1028.34 1027.82 1027.53 1027.32 1027.10 1026.74 1026.40 1026.17 1025.88 1025.80 1025.41 1025.08 1024.79 1024.43 1024.06 1023.61 1023.21 1022.96 1022.65 1022.26 1021.99 1021.46 1021.10 1020.63 1020.07 1019.60 1018.90 1019.14 1019.36 1019.83 1019.23 1018.33 1018.11 1018.02 1017.79 1017.75 1017.66
1028.58 1028.47 1028.46 1028.49 1028.29 1028.09 1028.28 1028.40 1028.12 1027.93 1027.60 1027.27 1027.00 1026.66 1026.24 1025.89 1025.91 1025.78 1025.47 1025.18 1024.69 1024.32 1023.89 1023.30 1022.97 1022.67 1022.18 1021.83 1021.44 1021.10 1020.45 1019.88 1019.42 1019.43 1020.05 1020.59 1019.62 1018.82 1018.56 1018.42 1018.22 1018.03 1018.08
1028.60 1029.02 1029.03 1028.91 1028.68 1028.67 1028.66 1028.37 1027.99 1028.11 1027.77 1027.49 1027.14 1026.96 1026.49 1026.41 1026.43 1026.23 1026.21 1025.79 1025.39 1024.78 1024.35 1023.80 1023.27 1022.76 1022.30 1021.93 1021.73 1021.25 1020.69 1020.51 1020.13 1019.96 1020.93 1021.06 1020.16 1019.32 1019.17 1018.87 1018.67 1018.46 1018.28
1028.88 1029.36 1029.53 1029.48 1029.40 1029.16 1028.80 1028.60 1028.34 1028.38 1028.26 1028.14 1027.94 1027.52 1027.18 1026.90 1026.81 1026.52 1026.41 1026.03 1025.61 1025.35 1024.64 1024.17 1023.60 1023.12 1022.71 1022.57 1022.11 1021.62 1021.33 1021.11 1020.88 1020.61 1021.75 1021.46 1020.64 1020.05 1019.67 1019.34 1019.08 1018.94 1018.63
1029.23 1029.72 1030.09 1030.06 1030.01 1029.50 1029.22 1029.24 1028.88 1028.86 1028.74 1028.68 1028.66 1028.26 1027.83 1027.34 1027.08 1026.86 1026.71 1026.51 1026.21 1025.85 1025.28 1024.67 1024.11 1023.77 1023.49 1023.32 1022.98 1022.52 1022.14 1021.70 1021.74 1021.41 1022.27 1021.95 1021.23 1020.69 1020.35 1019.96 1019.54 1019.39 1019.18
1029.50 1030.09 1030.34 1030.24 1030.06 1029.99 1029.68 1029.74 1029.73 1029.69 1029.43 1029.40 1029.38 1029.15 1028.48 1027.96 1027.67 1027.52 1027.19 1026.90 1026.96 1026.51 1026.15 1025.47 1024.86 1024.47 1024.07 1023.87 1023.46 1023.13 1022.80 1022.35 1022.13 1021.98 1022.56 1022.75 1022.37 1021.74 1021.34 1020.94 1020.56 1020.11 1019.89
1029.60 1030.23 1030.51 1030.60 1030.45 1030.54 1030.43 1030.23 1030.31 1030.22 1030.13 1030.13 1030.09 1029.96 1029.52 1028.95 1028.55 1028.19 1027.81 1027.58 1027.41 1027.37 1026.75 1026.13 1025.73 1025.05 1024.77 1024.27 1024.18 1023.64 1023.35 1023.02 1022.55 1022.64 1022.65 1023.13 1022.98 1022.75 1022.64 1022.16 1021.52 1021.00 1020.81
1029.84 1030.29 1030.85 1030.98 1030.99 1030.89 1030.82 1030.75 1030.89 1030.90 1030.53 1030.55 1030.66 1030.62 1030.39 1029.96 1029.26 1028.88 1028.65 1028.29 1028.10 1027.98 1027.62 1027.03 1026.39 1025.71 1025.39 1024.96 1024.57 1024.21 1023.73 1023.56 1023.65 1023.58 1023.52 1023.47 1023.57 1023.57 1023.27 1022.98 1022.28 1021.95 1021.62
1029.70 1030.48 1030.94 1031.28 1031.32 1031.21 1031.29 1031.25 1031.19 1031.15 1031.10 1031.23 1031.15 1031.26 1031.10 1030.88 1030.20 1029.57 1029.25 1029.12 1028.85 1028.52 1028.15 1027.51 1027.02 1026.41 1025.94 1025.50 1024.98 1024.83 1024.56 1024.38 1024.41 1024.46 1024.33 1024.16 1024.35 1024.08 1023.79 1023.59 1022.92 1022.80 1022.40
1030.01 1030.64 1031.26 1031.72 1031.59 1031.45 1031.58 1031.57 1031.63 1031.62 1031.44 1031.57 1031.75 1031.70 1031.74 1031.43 1030.99 1030.49 1030.13 1029.95 1029.41 1028.94 1028.62 1028.13 1027.66 1027.12 1026.61 1026.17 1025.64 1025.31 1025.09 1025.05 1025.06 1025.14 1024.86 1025.17 1025.15 1024.55 1024.40 1024.23 1023.60 1023.41 1023.00
1030.29 1030.97 1031.42 1031.53 1031.59 1031.80 1031.92 1031.92 1031.84 1031.88 1031.81 1031.94 1032.05 1032.07 1032.05 1031.82 1031.70 1031.05 1030.74 1030.56 1030.05 1029.53 1029.13 1028.73 1028.07 1027.66 1027.23 1026.79 1026.10 1025.66 1025.44 1025.69 1025.62 1025.76 1025.55 1025.80 1025.48 1025.23 1025.03 1024.57 1024.31 1023.99 1023.62
1030.44 1031.00 1031.51 1031.89 1032.18 1032.28 1032.22 1032.03 1031.89 1031.97 1032.15 1032.26 1032.56 1032.70 1032.68 1032.45 1032.13 1031.60 1031.21 1030.90 1030.45 1030.11 1029.75 1029.41 1028.68 1028.20 1028.06 1027.40 1026.21 1025.97 1025.94 1026.20 1026.07 1026.19 1026.23 1026.28 1026.18 1025.77 1025.48 1025.20 1024.88 1024.53 1024.16
1030.47 1030.83 1031.14 1031.61 1032.07 1032.04 1031.98 1031.91 1031.91 1032.12 1032.43 1032.77 1033.10 1033.37 1033.19 1032.93 1032.67 1032.34 1031.84 1031.52 1031.18 1030.95 1030.75 1030.27 1029.59 1029.05 1028.78 1027.96 1026.63 1026.03 1026.10 1026.35 1026.49 1026.74 1026.84 1026.77 1026.61 1026.27 1026.11 1025.80 1025.37 1025.12 1024.64
1029.90 1030.25 1030.68 1031.11 1031.56 1031.82 1031.87 1032.17 1032.23 1032.39 1032.92 1033.19 1033.40 1033.60 1033.66 1033.49 1033.34 1032.94 1032.54 1032.09 1031.98 1031.48 1031.29 1031.13 1030.78 1029.95 1029.36 1028.99 1028.22 1026.77 1026.42 1026.36 1026.97 1027.04 1026.86 1026.98 1027.19 1026.85 1026.58 1026.27 1025.97 1025.50 1025.18
1029.85 1030.44 1031.14 1031.80 1032.21 1032.52 1032.78 1032.70 1032.79 1032.91 1033.09 1033.10 1033.37 1033.55 1034.08 1033.98 1033.83 1033.63 1033.40 1033.00 1032.60 1032.27 1032.20 1032.19 1031.81 1031.28 1030.21 1029.75 1029.49 1029.26 1028.14 1028.11 1027.80 1027.09 1027.26 1027.40 1027.41 1027.14 1026.90 1026.67 1026.18 1025.76 1025.67
1029.75 1030.60 1031.47 1032.20 1032.69 1033.14 1033.34 1033.00 1033.03 1032.59 1032.53 1033.08 1033.54 1033.95 1034.18 1034.40 1034.33 1034.20 1033.97 1033.69 1033.44 1033.14 1033.03 1032.93 1032.47 1031.94 1031.33 1030.72 1030.24 1030.42 1030.45 1030.33 1029.54 1028.44 1027.73 1027.81 1027.86 1027.58 1027.42 1027.06 1026.64 1026.15 1025.91
1030.27 1031.14 1031.99 1032.53 1032.79 1033.36 1033.63 1033.48 1033.69 1033.59 1033.78 1033.67 1033.86 1033.99 1034.19 1034.43 1034.73 1034.86 1034.78 1034.49 1034.27 1033.99 1033.75 1033.41 1033.13 1032.67 1032.26 1031.94 1031.69 1031.40 1030.83 1030.49 1030.33 1030.19 1028.98 1028.58 1028.39 1027.96 1027.83 1027.17 1026.90 1026.48 1026.27
1030.61 1031.41 1032.10 1032.70 1033.09 1033.65 1033.82 1034.02 1033.68 1033.97 1034.17 1034.34 1034.25 1034.15 1034.43 1034.68 1034.93 1035.40 1035.34 1035.06 1034.77 1034.65 1034.50 1034.05 1033.58 1033.41 1033.16 1032.77 1032.42 1032.15 1031.82 1031.44 1031.20 1031.10 1030.55 1029.86 1029.22 1028.50 1027.91 1027.42 1027.02 1026.74 1026.53
Wind_Speed
8 11 19 24 21 22 22 22 22 21 21 24 24 23 22 23 23 22 23 22 22 21 20 19 19 19 19 18 19 18 17 16 15 12 9 10 12 13 14 15 14 12 13
7 10 18 22 20 20 21 20 19 19 20 21 23 23 21 21 22 21 22 22 22 21 21 21 20 20 20 20 19 17 16 15 13 10 9 1 11 11 12 12 13 11 12
8 9 14 20 18 19 19 19 20 20 20 20 21 21 21 20 20 20 20 20 19 20 21 21 22 20 20 20 18 16 15 14 11 10 11 6 10 10 11 10 9 9 9
8 8 12 17 17 18 18 19 19 19 19 20 19 20 20 20 19 19 19 18 19 19 18 19 19 19 19 18 18 16 15 14 12 13 5 10 9 12 10 9 8 7 7
8 8 11 16 16 17 18 18 18 18 18 19 19 19 18 19 19 18 18 19 19 19 19 18 18 17 18 18 17 17 16 16 15 8 9 9 9 14 10 9 9 6 8
7 8 11 15 17 16 17 17 18 18 17 17 18 18 19 18 19 19 19 19 19 19 19 18 17 18 17 18 18 18 18 18 17 9 9 14 13 14 13 8 9 8 7
7 7 8 13 15 15 16 16 17 17 17 17 17 18 17 18 18 19 19 18 17 18 17 17 17 17 17 18 18 17 18 19 9 10 12 13 14 14 15 12 10 9 9
6 6 6 7 11 14 14 15 16 17 17 17 16 16 17 17 18 17 18 17 18 17 18 18 17 15 16 17 18 17 17 18 10 10 11 13 20 15 15 15 14 12 10
6 6 6 5 6 6 12 14 16 16 16 16 16 15 14 16 17 18 18 19 18 18 18 17 17 15 13 16 17 17 15 14 9 8 12 9 20 14 15 15 15 15 14
6 7 7 6 6 6 7 12 12 14 14 15 15 15 13 13 15 16 18 19 18 18 18 18 17 16 13 13 17 16 15 9 9 8 9 11 22 18 15 16 16 16 16
6 7 7 7 7 7 6 6 8 11 14 15 14 15 11 8 10 11 14 16 17 16 17 17 17 17 15 11 14 14 11 7 8 6 8 20 20 20 19 17 15 14 16
5 7 6 7 7 5 5 7 7 8 8 10 11 11 9 9 9 9 11 16 16 19 16 16 17 17 15 9 8 10 7 9 7 7 9 20 21 19 19 18 18 15 16
4 5 6 6 7 7 7 5 5 5 6 6 12 10 8 7 8 7 6 7 9 14 8 11 11 9 11 8 8 9 9 8 6 5 13 21 23 24 23 23 21 22 20
4 4 5 6 7 8 5 5 6 6 6 6 9 12 8 6 8 8 7 9 8 8 10 9 7 10 10 10 10 10 10 7 5 5 12 21 21 25 26 27 25 23 22
4 3 6 6 6 6 6 5 6 6 6 7 8 10 9 8 8 7 8 8 8 8 8 9 8 8 9 10 9 10 9 10 10 7 5 20 20 23 25 25 23 22 23
5 4 4 5 5 6 7 7 6 6 7 7 8 10 11 8 8 8 8 8 9 9 9 8 9 8 7 7 8 9 9 9 11 11 9 8 21 21 23 24 22 25 24
5 4 4 4 4 5 5 5 5 6 6 6 7 10 11 10 9 9 8 8 8 8 10 9 9 8 7 7 8 7 8 10 9 12 9 10 10 17 22 24 22 25 25
5 4 4 3 3 5 6 5 5 5 5 5 6 7 10 11 11 8 7 8 8 8 8 8 8 8 7 7 6 6 7 8 10 11 10 10 9 9 13 22 23 23 24
6 5 4 3 4 4 5 4 5 6 5 5 5 6 9 10 10 7 7 8 9 7 8 8 7 8 8 7 5 4 6 7 9 9 12 12 12 10 9 17 20 21 22
7 6 5 3 3 2 2 2 3 4 4 5 6 7 9 8 10 8 7 8 8 8 9 9 9 8 9 8 5 4 3 6 6 8 9 10 10 11 11 12 9 10 20
8 8 7 6 4 3 2 2 1 3 3 4 5 7 7 8 9 8 6 8 7 8 9 10 8 9 8 10 4 0 4 3 8 7 7 8 11 10 11 10 8 7 8
11 10 8 7 6 4 2 1 1 2 3 3 3 5 7 8 8 7 8 7 8 6 9 10 11 7 7 9 6 5 3 4 7 6 6 8 11 8 10 11 11 11 10
11 10 7 5 4 3 0 3 3 3 3 3 3 3 5 6 7 8 8 7 6 6 6 8 8 10 7 6 12 6 4 4 7 4 6 8 10 8 9 10 11 11 11
10 8 7 6 5 3 2 2 3 2 2 3 3 3 4 6 7 8 7 7 7 5 6 6 7 6 8 7 4 7 6 4 5 5 4 7 9 10 11 8 9 9 11
8 7 6 6 5 5 4 1 1 3 3 2 2 2 4 4 6 8 8 7 7 5 6 7 6 8 6 5 5 5 4 1 4 2 5 8 8 7 8 6 7 7 9
7 8 8 7 6 5 4 3 5 4 2 2 2 1 2 2 3 6 6 5 5 6 6 6 6 6 6 5 5 4 5 3 5 4 4 9 9 8 9 8 8 7 7
Wind_Direction
19 1 345 346 4 11 20 27 32 29 30 30 37 44 41 37 36 36 32 35 34 33 33 37 37 38 42 45 45 41 33 28 25 16 15 63 46 42 32 19 22 48 41
347 5 345 344 8 14 21 26 33 35 37 33 33 37 42 39 36 35 33 32 31 31 30 33 35 36 37 39 41 37 32 24 14 349 335 70 65 38 37 30 28 41 42
10 8 353 349 10 16 21 23 29 34 37 38 35 32 36 40 36 35 35 32 31 28 28 27 29 30 33 30 28 28 25 16 0 329 317 0 80 43 34 29 31 33 40
25 12 1 1 13 19 22 24 29 31 36 38 37 37 36 36 37 34 33 32 31 33 33 28 26 25 28 24 23 21 15 4 336 321 37 22 35 32 32 27 28 24 23
34 17 5 3 16 22 25 24 28 32 35 37 36 37 38 36 35 35 33 30 30 29 29 28 30 27 25 22 19 22 14 354 331 338 31 30 31 23 20 24 27 26 9
44 27 12 7 13 23 28 26 26 32 36 38 38 34 35 37 38 36 33 30 27 26 27 26 26 26 25 22 17 19 8 350 320 32 37 49 23 8 24 27 28 18 8
54 40 27 12 13 24 28 30 30 31 37 38 37 38 35 36 33 34 31 29 27 25 24 23 23 24 23 21 18 17 6 350 344 25 35 40 8 13 23 27 23 15 13
53 69 36 30 27 24 25 32 33 31 32 36 38 38 38 36 36 34 31 30 27 26 25 22 21 20 22 20 18 14 6 350 29 25 44 27 354 16 32 30 28 20 14
50 48 60 26 20 44 36 32 33 30 30 32 31 31 33 36 34 31 30 26 23 23 24 24 20 17 15 21 18 10 357 333 26 42 41 12 350 22 35 35 35 31 27
54 46 35 33 26 33 26 33 32 29 29 27 30 22 22 31 27 31 25 20 19 18 17 20 18 14 11 19 19 8 340 356 23 46 44 6 359 18 31 37 36 40 36
78 48 34 26 27 16 16 26 30 25 26 25 18 18 18 26 21 21 20 17 17 13 14 14 15 14 6 11 18 359 360 12 18 23 43 9 3 14 26 26 28 36 42
61 52 29 29 25 16 19 15 24 23 26 28 19 15 13 16 16 12 15 15 13 7 10 9 14 14 15 4 3 9 16 7 19 15 43 14 13 15 18 21 24 27 38
66 59 39 29 25 23 32 9 22 28 22 24 24 14 12 19 13 17 16 11 7 8 5 7 11 16 13 10 8 7 8 14 11 22 40 26 24 30 29 28 29 30 27
88 55 42 30 30 29 24 27 28 30 24 27 25 17 12 15 20 17 16 20 11 3 2 7 4 5 10 12 16 10 10 17 14 29 61 40 26 30 29 27 27 29 25
125 86 48 35 34 28 34 31 34 31 31 33 30 22 15 20 18 14 18 18 19 2 2 5 2 4 8 9 17 19 18 24 23 23 52 43 36 32 25 23 23 25 25
134 112 83 61 44 45 41 39 36 28 27 31 33 25 21 15 17 17 18 18 14 7 359 1 0 4 7 6 20 24 30 32 36 31 25 22 32 26 28 23 24 27 20
158 133 101 76 51 52 59 52 47 38 36 32 31 28 24 20 10 12 22 16 8 8 358 360 5 5 9 12 26 31 47 41 41 42 26 37 12 22 26 22 24 21 20
143 145 97 92 73 59 56 47 53 42 48 46 35 30 21 23 11 19 20 15 4 9 5 2 8 1 6 14 12 35 59 37 45 42 40 32 19 19 17 19 21 22 19
164 145 123 84 73 73 71 69 64 53 45 42 38 32 19 23 14 17 23 13 7 9 12 1 4 10 2 360 358 45 68 40 44 39 36 31 24 22 16 14 15 18 19
165 159 138 119 107 103 92 87 86 69 56 45 41 30 21 20 18 10 23 18 15 15 15 3 2 5 11 351 337 62 83 49 47 41 31 29 18 23 18 15 11 5 13
174 174 170 154 136 175 172 155 118 78 84 65 50 34 27 23 21 19 18 21 8 25 16 8 349 9 15 354 340 90 115 111 57 39 34 33 16 20 17 13 12 5 4
187 188 173 163 162 165 181 125 10 87 71 69 68 56 30 23 20 23 18 21 19 14 22 17 16 345 29 19 356 302 10 167 46 36 33 30 12 12 16 9 13 8 11
200 193 181 160 145 146 7 168 171 147 161 166 104 69 44 29 26 21 20 15 18 21 21 17 14 16 6 39 35 7 356 1 327 45 29 34 4 7 12 354 7 7 9
204 178 171 156 152 114 164 214 222 280 190 80 78 68 56 33 28 22 16 15 19 19 25 22 13 25 4 24 34 38 64 36 5 326 347 32 351 360 4 344 355 358 1
199 173 165 165 154 134 108 332 198 272 62 83 92 74 61 54 39 21 11 12 12 15 16 23 23 21 32 18 29 1 4 101 32 315 312 344 341 351 345 335 339 2 353
186 182 182 181 163 150 139 133 138 135 131 162 111 146 63 39 32 30 2 0 13 7 9 5 10 30 18 30 12 18 18 360 358 355 317 327 322 344 322 341 347 349 352